Retour au catalogue

DELTA 1 R/B

ActifSSO
NORAD 3616·ROCKET BODY·🇺🇸 United States

Lancé Dec 15, 1968 depuis Vandenberg Space Force Base

Loading…

Prochains Passages (prochaines 24 heures)

TLE

FraisSource: Space-Track

Époque: Sep 14, 2026, 06:57 UTC

1 03616U 68114B   26257.29027457 -.00000043  00000-0  83594-5 0  9996
2 03616 101.6921 201.8777 0013102 212.0858 315.8041 12.51403575639747

Suivez DELTA 1 R/B en temps réel avec AllMySat

Download on the App Store